Temperature
17 17 17 17 17 17 17 17 16 16 16 16 16 16 16 16 16 16 16 16 16 16 16 15 15 15 15 15 15 15 14 14 15 15 15 15 15 15
17 17 17 17 17 17 17 16 16 16 15 16 16 16 16 16 16 16 16 16 16 16 15 15 15 15 15 15 15 14 14 14 14 14 15 15 14 15
17 17 17 17 17 17 16 16 16 16 16 15 16 16 16 16 16 16 15 15 15 15 15 15 15 15 15 15 14 14 14 14 14 14 14 14 14 14
16 16 16 16 16 16 16 16 16 16 16 15 15 15 15 15 15 15 15 15 15 15 15 15 15 15 15 14 14 14 14 14 14 14 14 14 14 14
16 16 16 16 16 16 16 16 15 15 15 15 15 15 15 15 15 15 15 15 15 15 15 15 14 14 14 14 14 14 14 14 14 14 14 14 14 14
16 16 16 16 16 15 15 15 15 15 15 15 15 15 15 15 15 15 15 15 15 15 14 14 14 14 14 14 14 14 14 14 14 14 14 14 13 13
15 15 15 15 15 15 15 15 15 15 15 15 14 14 14 14 14 14 14 14 14 14 14 14 14 14 14 14 14 14 14 14 14 14 13 13 13 13
15 15 15 15 15 15 15 14 14 14 14 14 14 14 14 14 14 14 14 14 14 14 14 14 14 14 14 14 14 14 14 14 14 13 13 13 13 13
15 15 15 15 14 14 14 14 14 14 14 14 14 14 14 14 14 14 14 14 14 14 14 13 13 14 13 13 13 13 13 13 13 13 13 13 13 13
14 14 14 14 14 14 14 14 14 14 14 14 14 14 14 14 14 14 14 13 13 13 13 13 13 13 13 13 13 13 13 13 13 13 13 13 13 13
14 14 14 14 14 14 14 14 14 14 14 13 13 13 13 13 13 13 13 13 13 13 13 12 13 13 13 13 13 13 13 13 13 13 13 13 12 12
14 14 14 13 13 13 13 13 13 13 13 13 13 13 13 13 13 13 13 13 12 12 12 12 12 12 12 12 12 12 12 12 12 12 12 12 12 12
13 13 13 13 13 13 13 13 13 13 13 13 13 13 13 13 13 13 13 12 12 12 12 12 12 12 12 12 12 12 12 12 12 12 12 12 12 12
13 13 13 13 13 13 13 13 13 13 12 13 13 13 12 12 13 12 12 12 12 12 12 12 12 12 12 12 11 12 12 12 12 12 12 12 12 11
13 13 13 13 13 13 13 13 12 12 12 12 12 12 12 12 12 12 12 12 12 12 12 12 12 12 12 11 11 11 11 11 11 11 11 11 11 11
13 13 13 12 12 12 12 12 12 12 12 12 12 11 11 11 11 11 11 11 11 11 11 11 11 11 11 11 11 11 11 11 11 11 11 11 11 11
12 12 12 12 12 12 12 12 12 12 11 11 11 11 11 11 11 11 11 11 11 11 11 11 11 11 11 11 11 11 11 11 11 10 10 10 11 10
12 12 12 12 12 12 12 12 12 11 11 11 11 11 10 10 10 10 10 10 10 10 10 10 10 10 10 10 10 10 10 10 10 10 10 10 10 10
12 12 11 11 11 11 11 11 11 11 11 11 11 10 10 10 10 10 10 10 10 10 10 10 10 10 10 9 10 10 10 10 9 9 9 9 9 9
11 11 11 11 11 11 11 11 11 11 11 10 10 10 10 10 10 10 10 9 10 10 10 10 9 9 9 9 9 9 9 9 9 9 9 9 9 9
11 11 11 11 11 11 11 11 11 10 10 10 10 10 10 10 10 10 9 9 9 9 9 9 9 9 9 9 9 9 9 9 9 9 9 8 8 8
11 11 11 11 11 11 11 10 10 10 10 10 10 10 10 10 10 9 9 9 9 9 9 9 9 9 9 8 8 8 8 8 8 8 8 8 8 8
11 11 11 10 10 10 10 10 10 10 10 10 10 10 9 9 9 9 9 9 9 9 9 9 9 9 8 8 8 8 8 8 8 8 8 8 8 8
Wind_Speed
2 2 2 2 2 2 2 4 4 2 3 3 2 2 2 2 4 5 5 8 9 9 9 9 8 8 8 7 7 6 6 6 6 7 8 8 8 8
2 2 2 2 2 1 2 2 3 4 3 3 3 2 1 1 2 4 5 6 8 8 8 8 9 9 8 8 7 7 7 7 7 7 8 8 8 7
2 2 2 2 1 1 1 1 2 3 4 3 2 1 0 1 1 1 2 3 4 7 8 8 8 8 9 9 9 8 8 7 7 7 7 7 7 6
2 2 3 2 2 1 1 2 2 2 4 3 2 1 1 1 1 1 1 2 2 4 6 7 7 8 9 9 9 9 9 8 7 7 7 7 7 6
3 3 3 2 2 2 2 2 2 2 2 3 3 2 1 1 0 0 0 0 1 1 4 5 6 7 8 8 8 9 9 9 8 8 7 7 7 7
3 3 3 3 4 3 3 3 2 1 2 2 2 2 2 1 1 1 1 1 1 1 1 2 4 6 7 7 8 9 9 10 10 9 9 8 7 7
3 3 3 3 4 3 3 3 3 2 2 2 2 2 2 1 2 2 2 1 1 1 1 1 1 2 4 6 8 8 9 9 10 10 9 9 9 9
3 3 3 2 3 3 4 4 5 5 4 4 3 4 4 3 3 3 2 1 2 2 1 2 1 2 3 4 7 9 9 9 10 10 10 10 10 10
3 3 3 3 2 2 3 3 4 5 6 6 6 6 6 5 4 3 3 3 3 3 1 2 2 3 3 5 7 9 10 10 10 10 10 10 11 11
2 2 2 2 2 1 1 1 2 2 4 4 5 6 5 5 6 6 5 2 1 1 2 2 2 3 3 3 5 7 8 9 10 10 10 11 11 11
2 2 2 2 3 1 1 1 2 2 2 2 3 3 4 5 5 3 3 2 1 2 1 2 2 2 2 3 4 5 7 7 8 9 10 10 10 10
2 2 2 2 2 1 1 2 2 2 1 2 2 2 0 2 4 5 5 4 2 2 2 2 2 1 2 2 2 2 4 6 7 7 7 9 9 7
1 2 2 3 2 1 1 2 3 2 1 0 1 1 1 0 1 2 3 4 3 3 3 2 2 1 2 2 2 2 2 2 3 4 5 6 8 8
2 2 2 3 2 1 1 1 0 1 1 1 1 1 1 1 1 1 1 2 3 4 4 3 2 2 2 2 2 2 2 2 2 2 3 4 6 7
2 2 2 2 1 1 1 0 1 1 1 1 0 2 2 1 0 0 1 1 1 1 0 2 2 2 3 3 2 2 1 2 2 2 2 2 3 3
1 1 1 1 1 1 1 0 1 1 2 1 1 1 2 1 1 0 0 1 1 2 3 1 2 2 2 2 2 2 1 2 2 2 2 2 2 4
0 1 1 1 1 1 1 1 0 0 1 1 1 0 1 1 1 1 0 0 1 2 2 2 2 1 1 2 1 2 2 1 2 2 1 2 3 3
3 1 0 1 1 2 2 1 1 1 2 2 1 1 1 1 1 1 0 1 1 2 2 1 1 2 3 2 1 2 1 2 1 1 1 1 3 3
3 1 1 2 2 2 2 2 2 2 1 1 2 2 1 1 1 1 1 1 2 2 2 1 1 1 1 3 3 1 2 2 1 1 2 2 3 4
1 2 2 3 2 2 2 2 2 1 1 1 1 2 2 2 2 2 2 2 2 2 2 1 2 2 4 4 3 3 2 2 1 2 2 1 2 3
2 2 2 3 2 2 2 2 1 1 1 1 2 2 2 2 2 2 2 3 2 2 3 3 4 3 1 1 0 2 2 3 3 3 2 1 1 2
2 2 2 2 2 2 1 1 1 1 1 1 1 1 1 1 2 2 2 2 3 3 3 3 1 0 1 1 2 2 2 2 2 1 1 2 2 2
2 2 2 2 2 2 2 2 2 1 1 1 1 2 2 2 2 2 2 2 2 2 2 1 1 0 1 2 2 2 2 2 1 1 3 5 5 6
Wind_Direction
230 236 239 243 226 213 192 179 180 225 265 266 277 283 271 237 227 218 220 215 205 206 210 211 211 211 209 205 200 201 209 213 218 220 222 225 224 226
231 231 247 249 239 224 199 199 189 193 235 258 252 261 263 282 243 216 217 211 206 206 209 210 211 212 212 209 206 205 208 213 219 222 222 222 222 222
256 233 247 241 236 233 196 185 191 180 212 258 259 266 236 272 326 252 215 210 218 215 214 213 214 214 214 212 208 206 208 213 219 221 217 215 217 217
256 255 261 249 242 235 190 194 209 199 188 222 256 273 247 221 222 215 225 217 219 225 216 214 214 212 214 213 213 212 210 211 213 216 216 214 212 210
249 246 258 241 241 229 199 199 214 216 184 193 235 243 248 226 212 269 315 334 223 232 222 226 218 212 215 217 220 219 217 215 214 214 210 207 204 203
255 248 250 233 224 217 217 205 188 182 182 193 225 242 235 232 163 199 279 297 261 305 278 247 225 219 219 218 223 222 218 215 213 212 209 207 205 202
273 261 256 249 227 219 221 198 178 184 195 199 220 237 240 205 211 215 221 250 271 270 275 281 243 238 232 232 230 229 223 216 214 213 210 208 209 209
273 277 277 274 252 236 223 210 188 193 204 209 224 223 231 220 213 203 200 197 265 259 207 266 223 244 253 236 235 230 226 222 218 215 213 212 214 215
259 266 282 284 268 249 239 237 233 227 216 208 220 231 223 212 196 202 206 203 233 233 179 259 259 251 255 252 241 232 225 223 220 218 217 216 216 216
256 253 259 279 276 230 203 238 254 248 233 222 218 227 222 207 192 194 198 204 267 244 164 231 260 258 268 264 247 236 229 222 222 223 222 220 218 216
279 275 262 256 269 232 170 238 293 292 278 260 230 225 204 188 177 152 150 152 251 265 210 191 249 268 270 266 263 239 232 232 233 232 226 221 218 213
308 309 299 279 274 238 183 190 236 280 317 353 12 21 137 174 167 175 180 179 200 255 238 193 236 243 283 272 266 264 248 245 237 233 227 220 213 201
273 293 304 312 300 260 206 202 222 243 271 354 352 351 18 85 192 192 186 183 186 233 223 183 219 221 223 272 284 259 246 245 229 234 231 228 213 195
242 270 293 302 311 307 265 242 199 84 95 69 39 325 283 266 249 223 197 189 194 213 220 187 198 207 209 242 271 282 271 250 212 231 233 231 227 220
235 254 290 298 303 306 289 284 98 101 118 129 262 287 281 264 273 358 18 32 19 342 256 192 193 202 198 216 240 247 264 265 228 229 220 211 212 214
281 298 322 19 47 320 319 357 139 163 167 194 243 298 327 359 8 27 351 351 349 326 340 350 206 195 214 229 212 234 230 238 249 235 214 226 234 219
187 55 47 26 5 331 319 294 230 184 198 247 242 308 334 340 327 329 340 333 289 288 318 336 356 40 214 195 212 245 243 262 251 222 210 237 247 234
124 118 198 243 253 256 250 251 230 223 228 216 216 225 242 255 286 314 322 223 241 255 265 288 345 11 7 343 225 212 245 258 263 227 207 224 256 253
126 186 234 249 258 258 248 229 236 237 221 199 204 222 229 234 232 251 264 263 257 257 258 236 196 167 245 288 295 253 210 247 255 251 232 231 245 257
172 210 238 251 256 256 249 242 241 240 223 223 217 219 216 221 228 242 242 243 251 255 262 256 228 214 216 232 248 275 249 211 218 240 262 280 280 286
227 231 238 242 244 250 255 251 226 214 219 220 226 229 222 221 235 242 242 237 237 241 246 252 250 248 207 112 357 298 282 253 223 214 209 238 301 315
233 235 243 239 228 224 223 214 220 226 224 226 238 240 245 230 230 235 233 233 238 236 246 261 282 110 127 177 235 266 288 307 308 300 213 204 199 225
237 242 243 237 218 201 203 204 203 225 235 237 241 239 237 244 240 231 232 227 226 234 246 281 320 44 182 197 217 254 273 285 302 336 319 313 289 274
Height
1515 1515 1515 1516 1516 1516 1516 1516 1517 1515 1514 1514 1515 1515 1515 1514 1514 1514 1513 1513 1512 1512 1512 1512 1512 1512 1512 1513 1514 1514 1515 1516 1517 1518 1519 1520 1520 1521
1513 1512 1512 1512 1512 1512 1513 1513 1513 1513 1512 1511 1512 1512 1512 1512 1512 1511 1511 1511 1510 1510 1510 1510 1510 1510 1511 1511 1512 1512 1513 1514 1515 1516 1516 1517 1518 1518
1509 1509 1509 1509 1509 1509 1509 1509 1509 1510 1509 1509 1510 1510 1510 1510 1510 1509 1509 1509 1509 1509 1508 1508 1508 1508 1509 1509 1510 1510 1511 1512 1512 1513 1514 1514 1515 1515
1506 1506 1505 1505 1505 1505 1505 1505 1506 1506 1506 1505 1506 1507 1507 1508 1508 1507 1507 1507 1507 1507 1506 1506 1506 1507 1507 1507 1508 1508 1508 1509 1510 1510 1511 1512 1512 1513
1502 1502 1501 1501 1501 1501 1501 1502 1502 1502 1503 1503 1503 1504 1504 1505 1505 1505 1505 1505 1504 1504 1504 1504 1505 1505 1505 1505 1505 1506 1506 1507 1507 1508 1508 1509 1510 1510
1498 1498 1498 1498 1497 1497 1498 1498 1498 1499 1499 1500 1500 1501 1501 1502 1502 1502 1502 1502 1502 1502 1502 1502 1502 1503 1503 1503 1503 1503 1504 1504 1504 1505 1506 1506 1507 1507
1495 1495 1494 1494 1494 1494 1494 1494 1494 1495 1496 1496 1497 1497 1497 1498 1498 1499 1499 1499 1499 1500 1500 1499 1500 1499 1500 1500 1500 1500 1500 1501 1501 1502 1502 1503 1504 1504
1491 1491 1491 1491 1490 1490 1491 1491 1491 1492 1492 1493 1493 1493 1493 1495 1495 1496 1496 1496 1495 1497 1497 1497 1497 1496 1496 1496 1497 1497 1497 1497 1498 1498 1499 1500 1500 1501
1488 1488 1488 1487 1487 1487 1487 1488 1488 1489 1489 1490 1490 1489 1490 1491 1492 1493 1493 1493 1493 1494 1494 1493 1494 1493 1494 1494 1494 1494 1494 1494 1494 1495 1495 1496 1497 1497
1485 1485 1485 1484 1484 1484 1484 1484 1485 1486 1487 1487 1487 1487 1488 1488 1489 1490 1490 1490 1491 1491 1491 1490 1490 1491 1491 1491 1491 1491 1491 1490 1491 1491 1492 1492 1493 1494
1483 1483 1482 1482 1482 1482 1482 1482 1482 1483 1484 1485 1485 1485 1485 1486 1486 1487 1487 1487 1487 1488 1488 1488 1488 1488 1488 1488 1488 1488 1488 1487 1488 1488 1488 1489 1489 1490
1481 1481 1481 1480 1480 1480 1480 1480 1479 1480 1481 1481 1481 1482 1482 1482 1483 1484 1484 1484 1484 1484 1485 1486 1485 1485 1485 1485 1485 1485 1484 1484 1484 1484 1485 1485 1485 1486
1479 1478 1478 1478 1478 1478 1478 1478 1478 1478 1478 1478 1478 1478 1479 1479 1480 1480 1481 1481 1482 1481 1482 1483 1482 1482 1482 1481 1481 1481 1481 1481 1480 1481 1481 1481 1482 1482
1477 1477 1477 1477 1476 1476 1476 1476 1476 1476 1476 1475 1475 1475 1475 1476 1476 1477 1478 1479 1479 1480 1480 1480 1480 1479 1479 1478 1477 1477 1477 1477 1477 1477 1478 1478 1478 1478
1475 1476 1475 1475 1475 1475 1475 1475 1475 1474 1474 1473 1472 1472 1473 1473 1474 1475 1475 1476 1476 1477 1477 1477 1477 1477 1476 1475 1474 1474 1474 1474 1474 1474 1474 1474 1474 1474
1474 1474 1474 1474 1473 1473 1473 1473 1473 1473 1472 1471 1471 1471 1471 1471 1471 1472 1472 1473 1473 1473 1473 1474 1474 1474 1473 1473 1472 1472 1471 1471 1470 1470 1471 1471 1471 1471
1472 1472 1472 1472 1471 1471 1471 1471 1471 1471 1470 1470 1470 1470 1470 1470 1469 1470 1470 1470 1470 1470 1470 1471 1471 1471 1471 1470 1470 1469 1469 1468 1468 1467 1467 1467 1467 1467
1469 1469 1469 1469 1469 1469 1469 1469 1469 1468 1468 1468 1468 1468 1468 1468 1467 1468 1468 1468 1468 1467 1467 1467 1468 1468 1468 1468 1468 1466 1466 1465 1465 1464 1464 1463 1463 1464
1467 1467 1467 1467 1467 1467 1467 1467 1466 1466 1466 1466 1466 1466 1466 1465 1465 1465 1466 1466 1465 1465 1465 1465 1465 1465 1464 1463 1463 1464 1463 1462 1462 1461 1461 1460 1460 1460
1465 1465 1465 1465 1465 1465 1464 1464 1464 1463 1463 1463 1463 1463 1463 1463 1463 1463 1463 1463 1462 1462 1462 1462 1462 1462 1461 1461 1460 1460 1460 1460 1459 1458 1458 1458 1458 1458
1463 1463 1463 1463 1463 1463 1462 1462 1461 1460 1461 1461 1461 1461 1461 1461 1460 1460 1460 1460 1460 1460 1459 1459 1459 1459 1459 1459 1458 1457 1457 1457 1456 1456 1455 1455 1454 1454
1461 1461 1461 1461 1460 1460 1460 1460 1460 1459 1459 1459 1458 1458 1458 1458 1457 1457 1457 1457 1457 1457 1457 1457 1456 1456 1456 1455 1454 1454 1454 1454 1454 1453 1453 1453 1452 1451
1459 1459 1459 1458 1458 1458 1458 1458 1458 1457 1457 1456 1456 1455 1455 1455 1455 1454 1454 1454 1454 1454 1454 1454 1453 1453 1452 1452 1452 1451 1451 1450 1450 1450 1450 1450 1450 1450